Detroit Metro, MI

1:28 AM EDT on April 30, 2017 (GMT -0400)
Detroit Metro Wayne County

Weather History for KDTW - February, 2011

Change the Weather History Date:

Tuesday, February 1, 2011

  Actual Average Record
Temperature  
Mean Temperature 18 °F 26 °F  
Max Temperature 21 °F 33 °F 54 °F (1933)
Min Temperature 15 °F 19 °F -7 °F (1971)
Degree Days  
Heating Degree Days 47 39  
Month to date heating degree days 47 39  
Since 1 July heating degree days 3674 3559  
Cooling Degree Days 0 0  
Month to date cooling degree days 0 0  
Year to date cooling degree days 0 0  
Moisture  
Dew Point 12 °F    
Average Humidity 80    
Maximum Humidity 92    
Minimum Humidity 67    
Precipitation  
Precipitation 0.34 in 0.06 in 1.11 in (1968)
Month to date precipitation 0.34 0.06  
Year to date precipitation 1.87 2.02  
Snow  
Snow 6.30 in 0.40 in 13.70 in (2015)
Month to date snowfall 6.3 0.4  
Since 1 July snowfall 33.5 24.1  
Snow Depth 7.00 in    
Sea Level Pressure  
Sea Level Pressure 30.12 in    
Wind  
Wind Speed 14 mph (NE)    
Max Wind Speed 29 mph    
Max Gust Speed 40 mph    
Visibility 3 miles    
Events Fog , Snow    
T = Trace of Precipitation, MM = Missing Value Source: NWS Daily Summary

Daily Weather History Graph

Daily Weather History Graph

Search for Another Location

Airport or City:

Trip Planner

Search our weather history database for the weather conditions in past years. The results will help you decide how hot, cold, wet, or windy it might be!

Date:

Astronomy

Feb. 01, 2011 Rise Set
Actual Time 7:46 AM EST 5:47 PM EST
Civil Twilight 7:17 AM EST 6:17 PM EST
Nautical Twilight 6:43 AM EST 6:50 PM EST
Astronomical Twilight 6:10 AM EST 7:23 PM EST
Moon 6:45 AM EST (2/1) 4:40 PM EST (2/1)
Length of Visible Light 11h 00m
Length of Day
10h 00m
Waning Crescent, 2% of the Moon is Illuminated
Feb 1
Waning Crescent
Feb 2
New
Feb 11
First Quarter
Feb 18
Full
Feb 24
Last Quarter

Hourly Weather History & Observations

Time (EST) Temp. Windchill Dew Point Humidity Pressure Visibility Wind Dir Wind Speed Gust Speed Precip Events Conditions
12:53 AM 16.0 °F 3.6 °F 7.0 °F 68% 30.24 in 10.0 mi ENE 10.4 mph - N/A   Overcast
1:26 AM 15.8 °F 2.7 °F 6.8 °F 68% 30.21 in 6.0 mi NE 11.5 mph - 0.00 in Snow Light Snow
1:37 AM 15.8 °F 3.4 °F 6.8 °F 68% 30.22 in 2.0 mi NE 10.4 mph - 0.00 in Snow Light Snow
1:49 AM 15.8 °F 2.7 °F 8.6 °F 73% 30.22 in 1.2 mi NE 11.5 mph - 0.00 in Snow Light Snow
1:53 AM 15.1 °F 2.5 °F 8.1 °F 74% 30.27 in 1.2 mi NNE 10.4 mph - 0.00 in Snow Light Snow
2:04 AM 15.8 °F 4.2 °F 8.6 °F 73% 30.23 in 1.0 mi NNE 9.2 mph - 0.01 in Snow Light Snow
2:18 AM 15.8 °F 5.1 °F 10.4 °F 79% 30.23 in 0.8 mi NNE 8.1 mph - 0.02 in Snow Light Snow
2:27 AM 15.8 °F 4.2 °F 10.4 °F 79% 30.23 in 0.5 mi NNE 9.2 mph - 0.03 in Fog , Snow Snow
2:38 AM 15.8 °F 2.1 °F 10.4 °F 79% 30.22 in 0.8 mi NNE 12.7 mph - 0.03 in Snow Light Snow
2:45 AM 15.8 °F 3.4 °F 10.4 °F 79% 30.22 in 0.8 mi NNE 10.4 mph - 0.04 in Snow Light Snow
2:53 AM 15.1 °F -0.1 °F 10.9 °F 84% 30.25 in 0.8 mi NNE 15.0 mph - 0.05 in Snow Light Snow
3:19 AM 15.8 °F 2.1 °F 10.4 °F 79% 30.22 in 0.8 mi NNE 12.7 mph - N/A Snow Light Snow
3:27 AM 15.8 °F 1.4 °F 10.4 °F 79% 30.20 in 1.0 mi NE 13.8 mph - 0.02 in Snow Light Snow
3:35 AM 15.8 °F 1.4 °F 10.4 °F 79% 30.21 in 1.0 mi NE 13.8 mph - 0.02 in Snow Light Snow
3:50 AM 15.8 °F 2.1 °F 10.4 °F 79% 30.20 in 1.0 mi NE 12.7 mph - N/A Snow Light Snow
3:53 AM 15.1 °F 1.8 °F 10.9 °F 84% 30.24 in 1.0 mi NNE 11.5 mph - 0.02 in Snow Light Snow
4:16 AM 15.8 °F 3.4 °F 10.4 °F 79% 30.21 in 1.0 mi NE 10.4 mph - 0.00 in Snow Light Snow
4:40 AM 15.8 °F 2.7 °F 10.4 °F 79% 30.20 in 1.0 mi NE 11.5 mph - 0.01 in Snow Light Snow
4:48 AM 15.8 °F 3.4 °F 10.4 °F 79% 30.20 in 1.0 mi NE 10.4 mph - 0.01 in Snow Light Snow
4:53 AM 16.0 °F 2.9 °F 10.9 °F 81% 30.23 in 1.0 mi NE 11.5 mph - 0.01 in Snow Light Snow
5:11 AM 15.8 °F 2.7 °F 10.4 °F 79% 30.20 in 2.0 mi NE 11.5 mph - 0.00 in Snow Light Snow
5:27 AM 15.8 °F 4.2 °F 10.4 °F 79% 30.22 in 4.0 mi NE 9.2 mph - 0.00 in Snow Light Snow
5:53 AM 16.0 °F 4.4 °F 10.9 °F 81% 30.25 in 7.0 mi NE 9.2 mph 19.6 mph 0.00 in Snow Light Snow
6:23 AM 17.6 °F 5.7 °F 10.4 °F 73% 30.21 in 3.0 mi NE 10.4 mph 18.4 mph 0.00 in Snow Light Snow
6:48 AM 15.8 °F 2.7 °F 12.2 °F 86% 30.21 in 2.5 mi NE 11.5 mph - 0.00 in Snow Light Snow
6:53 AM 17.1 °F 6.6 °F 12.0 °F 81% 30.25 in 2.0 mi NE 8.1 mph - 0.00 in Snow Light Snow
7:28 AM 17.6 °F 6.4 °F 12.2 °F 79% 30.22 in 3.0 mi NE 9.2 mph - 0.00 in Snow Light Snow
7:53 AM 17.1 °F 6.6 °F 12.9 °F 84% 30.27 in 4.0 mi NNE 8.1 mph - 0.00 in Snow Light Snow
8:53 AM 18.0 °F 5.4 °F 12.9 °F 81% 30.26 in 8.0 mi NE 11.5 mph - 0.00 in Snow Light Snow
9:00 AM 17.6 °F 5.7 °F 12.2 °F 79% 30.23 in 7.0 mi NE 10.4 mph - 0.00 in Snow Light Snow
9:53 AM 19.0 °F 7.5 °F 12.9 °F 77% 30.26 in 6.0 mi NE 10.4 mph - 0.00 in Snow Light Snow
10:53 AM 19.0 °F 4.0 °F 12.9 °F 77% 30.29 in 5.0 mi NNE 17.3 mph - 0.00 in Snow Light Snow
11:37 AM 19.4 °F 6.0 °F 12.2 °F 74% 30.23 in 9.0 mi NE 13.8 mph 21.9 mph 0.00 in   Overcast
11:53 AM 19.9 °F 7.3 °F 12.0 °F 71% 30.27 in 10.0 mi NE 12.7 mph - 0.00 in   Overcast
12:53 PM 19.9 °F 4.3 °F 12.9 °F 74% 30.21 in 10.0 mi NE 19.6 mph 24.2 mph N/A   Overcast
1:53 PM 21.0 °F 7.6 °F 12.0 °F 68% 30.22 in 10.0 mi NE 15.0 mph - N/A   Overcast
2:53 PM 21.0 °F 8.1 °F 12.0 °F 68% 30.21 in 9.0 mi NE 13.8 mph 25.3 mph N/A   Overcast
3:00 PM 19.4 °F 6.0 °F 12.2 °F 74% 30.18 in 10.0 mi ENE 13.8 mph 24.2 mph N/A   Overcast
3:53 PM 19.9 °F 7.3 °F 12.9 °F 74% 30.21 in 10.0 mi NE 12.7 mph 23.0 mph N/A   Overcast
3:58 PM 21.2 °F 8.9 °F 12.2 °F 68% 30.19 in 10.0 mi NE 12.7 mph 21.9 mph N/A   Overcast
4:53 PM 19.9 °F 5.2 °F 12.9 °F 74% 30.18 in 10.0 mi NE 17.3 mph 23.0 mph N/A   Overcast
5:00 PM 19.4 °F 5.5 °F 12.2 °F 74% 30.15 in 10.0 mi NE 15.0 mph 23.0 mph N/A   Overcast
5:36 PM 19.4 °F 5.0 °F 12.2 °F 74% 30.14 in 10.0 mi NE 16.1 mph 23.0 mph N/A   Overcast
5:53 PM 19.9 °F 7.3 °F 12.0 °F 71% 30.17 in 6.0 mi NE 12.7 mph 25.3 mph 0.00 in Snow Light Snow
5:59 PM 19.4 °F 4.5 °F 12.2 °F 74% 30.13 in 2.5 mi NE 17.3 mph 23.0 mph 0.00 in Snow Light Snow
6:06 PM 19.4 °F 6.0 °F 12.2 °F 74% 30.12 in 1.8 mi NE 13.8 mph 23.0 mph 0.00 in Snow Light Snow
6:23 PM 19.4 °F 5.5 °F 14.0 °F 80% 30.12 in 1.5 mi NE 15.0 mph 20.7 mph 0.01 in Snow Light Snow
6:30 PM 19.4 °F 6.0 °F 14.0 °F 80% 30.11 in 1.2 mi NE 13.8 mph 20.7 mph 0.01 in Snow Light Snow
6:53 PM 19.0 °F 3.6 °F 14.0 °F 81% 30.14 in 1.2 mi NE 18.4 mph 28.8 mph 0.02 in Snow Light Snow
7:10 PM 19.4 °F 6.0 °F 15.8 °F 86% 30.08 in 0.8 mi NE 13.8 mph 20.7 mph 0.00 in Snow Light Snow
7:17 PM 19.4 °F 4.1 °F 15.8 °F 86% 30.08 in 0.8 mi NE 18.4 mph 25.3 mph 0.00 in Snow Light Snow
7:35 PM 19.4 °F 7.2 °F 15.8 °F 86% 30.07 in 1.2 mi NE 11.5 mph 23.0 mph 0.02 in Snow Light Snow
7:53 PM 19.0 °F 6.1 °F 15.1 °F 85% 30.09 in 0.8 mi ENE 12.7 mph 21.9 mph 0.03 in Snow Light Snow
8:09 PM 19.4 °F 5.5 °F 15.8 °F 86% 30.03 in 0.8 mi ENE 15.0 mph 28.8 mph 0.01 in Snow Light Snow
8:16 PM 19.4 °F 2.8 °F 15.8 °F 86% 30.02 in 0.2 mi NE 21.9 mph 29.9 mph 0.02 in Snow Heavy Snow
8:25 PM 17.6 °F 1.3 °F 15.8 °F 93% 30.01 in 0.5 mi NE 19.6 mph 29.9 mph 0.02 in Snow Snow
8:53 PM 18.0 °F 1.7 °F 15.1 °F 88% 30.04 in 0.8 mi ENE 19.6 mph 28.8 mph 0.05 in Snow Light Snow
9:53 PM 18.0 °F 3.1 °F 14.0 °F 84% 30.01 in 0.5 mi ENE 16.1 mph 27.6 mph 0.06 in Snow Snow
10:18 PM 17.6 °F 3.2 °F 14.0 °F 86% 29.93 in 0.2 mi ENE 15.0 mph 23.0 mph 0.03 in Snow Heavy Snow
10:36 PM 17.6 °F 2.7 °F 14.0 °F 86% 29.93 in 0.5 mi ENE 16.1 mph 28.8 mph 0.05 in Snow Snow
10:49 PM 17.6 °F 2.2 °F 15.8 °F 93% 29.88 in 0.2 mi ENE 17.3 mph 28.8 mph 0.07 in Snow Heavy Snow
10:53 PM 18.0 °F 2.2 °F 15.1 °F 88% 29.88 in 0.2 mi ENE 18.4 mph 26.5 mph 0.07 in Snow Heavy Snow
11:03 PM 17.6 °F -1.0 °F 14.0 °F 86% 29.75 in 0.1 mi ENE 26.5 mph 40.3 mph 0.00 in Snow Heavy Snow
11:22 PM 17.6 °F 0.1 °F 15.8 °F 93% 29.74 in 0.2 mi ENE 23.0 mph 35.7 mph 0.01 in Snow Heavy Snow
11:31 PM 17.6 °F 1.3 °F 15.8 °F 93% 29.73 in 0.5 mi ENE 19.6 mph 33.4 mph 0.01 in Snow Snow
11:35 PM 17.6 °F 0.9 °F 15.8 °F 93% 29.75 in 0.8 mi ENE 20.7 mph 33.4 mph 0.03 in Snow Light Snow
11:43 PM 17.6 °F 1.3 °F 15.8 °F 93% 29.75 in 1.0 mi ENE 19.6 mph 31.1 mph 0.03 in Snow Light Snow
11:48 PM 17.6 °F 1.3 °F 15.8 °F 93% 29.74 in 2.0 mi ENE 19.6 mph 32.2 mph 0.03 in Snow Light Snow
11:53 PM 19.4 °F 4.1 °F 15.8 °F 86% 29.74 in 2.0 mi NE 18.4 mph 32.2 mph N/A Snow Light Snow